CDT,Max TemperatureF,Mean TemperatureF,Min TemperatureF,Max Dew PointF,MeanDew PointF,Min DewpointF,Max Humidity, Mean Humidity, Min Humidity, Max Sea Level PressureIn, Mean Sea Level PressureIn, Min Sea Level PressureIn, Max VisibilityMiles, Mean VisibilityMiles, Min VisibilityMiles, Max Wind SpeedMPH, Mean Wind SpeedMPH, Max Gust SpeedMPH,PrecipitationIn, CloudCover, Events, WindDirDegrees
2013-8-1,93,85,77,78,76,75,85,71,56,30.02,29.97,29.92,10,10,10,13,6,17,T,2,,279
2013-8-2,95,86,77,76,74,72,91,68,44,30.01,29.96,29.92,10,10,8,13,5,16,0.00,1,,91
2013-8-3,94,85,76,79,76,69,91,73,55,30.07,30.02,29.97,10,10,9,13,5,17,0.00,1,,260
2013-8-4,96,87,77,79,77,72,91,67,43,30.10,30.04,29.98,10,10,10,12,6,17,0.00,1,,272
2013-8-5,95,87,78,79,77,75,91,72,52,30.07,30.00,29.94,10,10,9,14,7,17,0.00,1,,290
2013-8-6,96,87,78,79,77,74,97,72,46,30.02,29.96,29.91,10,10,10,12,6,26,0.00,2,,281
2013-8-7,97,88,79,79,76,67,91,67,43,29.99,29.93,29.88,10,10,9,13,6,17,0.00,2,,292
2013-8-8,95,87,79,79,76,73,94,72,49,29.96,29.92,29.88,10,9,7,14,5,20,0.01,1,Thunderstorm,61
2013-8-9,92,86,80,78,76,73,85,71,56,30.01,29.96,29.91,10,9,1,21,4,23,0.47,3,Rain-Thunderstorm,122
2013-8-10,94,87,79,77,75,72,85,67,49,30.06,30.02,29.99,10,10,9,20,6,24,0.02,2,,132
2013-8-11,90,83,76,78,75,71,91,77,63,30.11,30.07,30.04,10,9,2,24,4,29,0.75,2,Rain,139
2013-8-12,92,85,78,79,76,72,97,79,60,30.10,30.06,30.02,10,9,2,13,4,15,T,2,Rain,181
2013-8-13,91,83,74,79,75,72,97,88,79,30.06,30.01,29.94,10,8,1,25,8,32,1.10,4,Rain-Thunderstorm,237
2013-8-14,82,78,74,76,74,71,100,93,85,30.01,29.96,29.92,10,9,4,21,5,28,1.33,5,Rain,296
2013-8-15,89,82,74,75,74,71,100,80,59,30.00,29.95,29.91,10,8,5,13,6,20,0.00,5,Rain,74
2013-8-16,91,84,76,76,74,70,88,70,52,29.97,29.94,29.91,10,8,6,16,5,20,0.00,2,,95
2013-8-17,86,82,77,76,74,72,91,80,69,29.98,29.94,29.90,10,9,2,18,8,28,0.07,5,Rain,75
2013-8-18,83,79,75,75,74,72,94,82,69,30.01,29.95,29.90,10,9,3,22,9,26,0.00,6,Rain,21
2013-8-19,87,79,71,75,73,71,94,80,65,30.04,30.00,29.97,10,10,9,20,3,24,0.65,2,Rain,100
2013-8-20,88,81,73,77,75,71,94,81,68,30.05,30.01,29.98,10,10,10,16,4,22,0.30,2,Rain,119
2013-8-21,88,82,75,78,75,71,94,81,68,30.11,30.06,30.02,10,9,2,20,4,29,1.74,3,Rain,108
2013-8-22,90,82,73,78,75,73,100,80,59,30.09,30.03,29.96,10,10,9,16,6,20,T,1,,87
2013-8-23,88,83,78,77,74,71,91,78,65,29.99,29.96,29.92,10,10,10,21,8,25,T,2,Rain,79
2013-8-24,82,79,75,75,73,70,94,82,69,30.08,30.03,29.95,10,9,2,15,8,22,0.17,5,Rain,104
2013-8-25,84,80,75,76,74,73,94,87,79,30.17,30.12,30.06,10,8,2,20,7,25,0.38,5,Rain,102
2013-8-26,86,80,74,76,74,70,94,80,65,30.18,30.14,30.09,10,9,2,18,6,23,0.23,5,Rain,92
2013-8-27,87,80,73,73,69,63,93,70,46,30.11,30.07,30.03,10,10,10,12,4,16,0.00,0,,53
2013-8-28,87,78,69,70,66,60,94,67,40,30.09,30.04,30.00,10,10,9,13,5,17,T,1,,19
2013-8-29,89,80,71,72,68,64,93,70,46,30.07,30.02,29.98,10,9,6,10,3,29,0.00,0,,285
2013-8-30,91,82,72,74,71,67,93,72,51,30.04,29.98,29.93,10,7,5,12,5,18,0.00,0,,274
2013-8-31,92,84,75,76,74,69,94,75,56,29.99,29.92,29.86,10,9,6,10,5,14,0.00,0,,272